Time,TemperatureF,DewpointF,PressureIn,WindDirection,WindDirectionDegrees,WindSpeedMPH,WindSpeedGustMPH,Humidity,HourlyPrecipIn,Conditions,Clouds,dailyrainin,SolarRadiationWatts/m^2,SoftwareType,DateUTC
2014-10-31 00:05:00,31.1,31.1,30.50,NNW,348,13.0,13.0,100,0.00,,,0.00,0,Wunderground v.1.15,2014-10-31 05:05:00,
2014-10-31 00:10:00,31.0,31.0,30.50,NNW,334,8.0,8.0,100,0.00,,,0.00,0,Wunderground v.1.15,2014-10-31 05:10:00,
2014-10-31 00:16:00,30.9,30.9,30.51,North,356,10.0,10.0,100,0.00,,,0.00,0,Wunderground v.1.15,2014-10-31 05:16:00,
2014-10-31 00:22:00,30.9,30.9,30.50,North,11,9.0,15.0,100,0.00,,,0.00,0,Wunderground v.1.15,2014-10-31 05:22:00,
2014-10-31 00:28:00,30.6,30.6,30.51,North,359,4.0,15.0,100,0.00,,,0.00,0,Wunderground v.1.15,2014-10-31 05:28:00,
2014-10-31 00:34:00,30.6,30.6,30.51,North,350,4.0,16.0,100,0.00,,,0.00,0,Wunderground v.1.15,2014-10-31 05:34:00,
2014-10-31 00:40:00,30.4,30.4,30.51,NW,319,6.0,7.0,100,0.00,,,0.00,0,Wunderground v.1.15,2014-10-31 05:40:00,
2014-10-31 00:46:00,30.3,30.3,30.52,North,3,10.0,10.0,100,0.00,,,0.00,0,Wunderground v.1.15,2014-10-31 05:46:00,
2014-10-31 00:52:00,30.1,30.1,30.52,NNW,329,8.0,14.0,100,0.00,,,0.00,0,Wunderground v.1.15,2014-10-31 05:52:00,
2014-10-31 00:58:00,30.1,30.1,30.52,NNW,329,6.0,14.0,100,0.00,,,0.00,0,Wunderground v.1.15,2014-10-31 05:58:00,
2014-10-31 01:03:00,30.0,30.0,30.52,North,353,8.0,8.0,100,0.00,,,0.00,0,Wunderground v.1.15,2014-10-31 06:03:00,
2014-10-31 01:09:00,29.8,29.8,30.52,NNW,347,5.0,5.0,100,0.00,,,0.00,0,Wunderground v.1.15,2014-10-31 06:09:00,
2014-10-31 01:15:00,29.7,-99.9,30.53,North,358,7.0,7.0,0,0.00,,,0.00,0,Wunderground v.1.15,2014-10-31 06:15:00,
2014-10-31 01:20:00,29.6,-99.9,30.53,WNW,288,3.0,3.0,0,0.00,,,0.00,0,Wunderground v.1.15,2014-10-31 06:20:00,
2014-10-31 01:25:00,29.4,-99.9,30.53,North,354,5.0,7.0,0,0.00,,,0.00,0,Wunderground v.1.15,2014-10-31 06:25:00,
2014-10-31 01:31:00,29.3,-60.4,30.53,NNW,348,7.0,10.0,1,0.00,,,0.00,0,Wunderground v.1.15,2014-10-31 06:31:00,
2014-10-31 01:36:00,29.3,-60.4,30.53,North,359,3.0,12.0,1,0.00,,,0.00,0,Wunderground v.1.15,2014-10-31 06:36:00,
2014-10-31 01:41:00,29.2,-60.4,30.53,NNE,21,4.0,4.0,1,0.00,,,0.00,0,Wunderground v.1.15,2014-10-31 06:41:00,
2014-10-31 01:47:00,29.2,-60.4,30.53,North,357,11.0,11.0,1,0.00,,,0.00,0,Wunderground v.1.15,2014-10-31 06:47:00,
2014-10-31 01:53:00,29.1,-49.5,30.54,North,351,2.0,8.0,2,0.00,,,0.00,0,Wunderground v.1.15,2014-10-31 06:53:00,
2014-10-31 01:59:00,28.9,-49.6,30.54,NNW,343,3.0,3.0,2,0.00,,,0.00,0,Wunderground v.1.15,2014-10-31 06:59:00,
2014-10-31 02:04:00,28.9,-49.6,30.55,NW,323,5.0,12.0,2,0.00,,,0.00,0,Wunderground v.1.15,2014-10-31 07:04:00,
2014-10-31 02:09:00,28.9,-49.6,30.55,NW,319,3.0,4.0,2,0.00,,,0.00,0,Wunderground v.1.15,2014-10-31 07:09:00,
2014-10-31 02:14:00,28.8,-42.9,30.55,NNW,334,2.0,10.0,3,0.00,,,0.00,0,Wunderground v.1.15,2014-10-31 07:14:00,
2014-10-31 02:19:00,28.6,-43.0,30.55,NNW,337,4.0,4.0,3,0.00,,,0.00,0,Wunderground v.1.15,2014-10-31 07:19:00,
2014-10-31 02:24:00,28.6,-43.0,30.55,NNW,340,5.0,12.0,3,0.00,,,0.00,0,Wunderground v.1.15,2014-10-31 07:24:00,
2014-10-31 02:29:00,28.5,-43.1,30.55,North,359,6.0,6.0,3,0.00,,,0.00,0,Wunderground v.1.15,2014-10-31 07:29:00,
2014-10-31 02:34:00,28.5,-43.1,30.56,NNW,347,8.0,14.0,3,0.00,,,0.00,0,Wunderground v.1.15,2014-10-31 07:34:00,
2014-10-31 02:39:00,28.5,-99.9,30.56,North,352,6.0,10.0,255,0.00,,,0.00,0,Wunderground v.1.15,2014-10-31 07:39:00,
2014-10-31 02:45:00,28.4,-34.2,30.57,North,355,6.0,11.0,5,0.00,,,0.00,0,Wunderground v.1.15,2014-10-31 07:45:00,
2014-10-31 02:50:00,28.3,-34.3,30.57,NW,307,4.0,11.0,5,0.00,,,0.00,0,Wunderground v.1.15,2014-10-31 07:50:00,
2014-10-31 02:55:00,28.2,-34.4,30.57,NW,304,4.0,11.0,5,0.00,,,0.00,0,Wunderground v.1.15,2014-10-31 07:55:00,
2014-10-31 03:00:00,28.1,-31.2,30.57,NW,311,7.0,10.0,6,0.00,,,0.00,0,Wunderground v.1.15,2014-10-31 08:00:00,
2014-10-31 03:05:00,28.0,-31.2,30.58,North,3,5.0,13.0,6,0.00,,,0.00,0,Wunderground v.1.15,2014-10-31 08:05:00,
2014-10-31 03:10:00,28.0,-28.4,30.58,NNW,336,5.0,5.0,7,0.00,,,0.00,0,Wunderground v.1.15,2014-10-31 08:10:00,
2014-10-31 03:15:00,27.9,-28.5,30.58,NW,309,2.0,9.0,7,0.00,,,0.00,0,Wunderground v.1.15,2014-10-31 08:15:00,
2014-10-31 03:20:00,27.7,-28.6,30.58,North,352,9.0,13.0,7,0.00,,,0.00,0,Wunderground v.1.15,2014-10-31 08:20:00,
2014-10-31 03:25:00,27.8,-26.1,30.58,NNW,341,3.0,13.0,8,0.00,,,0.00,0,Wunderground v.1.15,2014-10-31 08:25:00,
2014-10-31 03:30:00,27.8,-26.1,30.59,North,354,8.0,8.0,8,0.00,,,0.00,0,Wunderground v.1.15,2014-10-31 08:30:00,
2014-10-31 03:35:00,27.8,-26.1,30.58,NW,317,6.0,12.0,8,0.00,,,0.00,0,Wunderground v.1.15,2014-10-31 08:35:00,
2014-10-31 03:40:00,27.7,-26.2,30.58,North,10,4.0,10.0,8,0.00,,,0.00,0,Wunderground v.1.15,2014-10-31 08:40:00,
2014-10-31 03:45:00,27.6,-24.0,30.58,North,357,11.0,11.0,9,0.00,,,0.00,0,Wunderground v.1.15,2014-10-31 08:45:00,
2014-10-31 03:50:00,27.6,-24.0,30.58,North,356,10.0,11.0,9,0.00,,,0.00,0,Wunderground v.1.15,2014-10-31 08:50:00,
2014-10-31 03:55:00,27.6,-24.0,30.58,North,3,6.0,13.0,9,0.00,,,0.00,0,Wunderground v.1.15,2014-10-31 08:55:00,
2014-10-31 04:00:00,27.6,-24.0,30.59,NW,307,3.0,4.0,9,0.00,,,0.00,0,Wunderground v.1.15,2014-10-31 09:00:00,
2014-10-31 04:05:00,27.5,-24.1,30.58,West,272,5.0,11.0,9,0.00,,,0.00,0,Wunderground v.1.15,2014-10-31 09:05:00,
2014-10-31 04:10:00,27.5,-24.1,30.58,NW,316,3.0,6.0,9,0.00,,,0.00,0,Wunderground v.1.15,2014-10-31 09:10:00,